CZ-4 DEB, 26200

Orbit data source: Space-Track

CZ-4 DEB, 26200 is space debris in SSO originally from a launch on Thu, 14 Oct 1999 UTC launched from the Taiyaun Space Center, China (TSC). Debris objects in space refer to the collection of defunct objects orbiting the Earth. Examples of debris include non-operational satellites, rocket bodies, and fragments generated from explosions, collisions, or faulty payload assembly.

Loading next visibility...
Identifier
26200, 1999-057CN
Orbit
SSO
Country
Flag of CNCN / PRC
Related business
Manufacturer
Unknown
Mission
Spacecraft
Bus & Motor
Unknown
Mass
Unknown
Launch date (UTC)
1999-10-14 (26 years ago)
Launch vehicle
Unknown
Launch site
Taiyaun Space Center, China (TSC)
Object type
Payload
Rocket body
Debris
Shape & HBR
Unknown shape, 0.1 m
Radar Cross Section
Small (<0.1 m²)

Expand to show TLE details & history
Last TLE update: 1 day ago

TLE from 1 day ago
0 CZ-4 DEB
1 26200U 99057CN  25348.89742324  .00002961  00000-0  42228-3 0  9990
2 26200  98.2774 325.4565 0042115 173.4191 186.7580 14.76957179369300
Epoch: 2025-12-14T21:32Z
TLE epoch observation values (Epoch: 2025-12-14T21:32:17.367Z)
Latitude
-0.00007°
Longitude
-81.4196°
Altitude
671.306 km
Speed
7.506 km/s
True Right ascension
21h 41m 49s
True Declination
0° 00' 00"
Sunlit
Object was in daylight at epoch
Visualization orbit readout
Latitude
Unknown
Longitude
Unknown
Altitude
Unknown
Speed
Unknown
Apparent Right ascension
Unknown
Apparent Declination
Unknown
Sunlit
N/A
Visualization observer readout
Local Sidereal Time
01:19:13
Azimuth
Unknown
Elevation
Unknown
Doppler factor
Unknown
Orbital elements
Apogee altitude
665.548 km
Perigee altitude
606.467 km
Semi-major axis
7,014.144 km
Eccentricity
0.00421
Inclination
98.2774°
RAAN
325.4565°
Arg. of periapsis
173.4191°
True anomaly
186.7015°
Mean anomaly
186.758°
Eccentric anomaly
186.72972°
Mean motion
3.69472 °/min
Orbital period
97.44 mins
BSTAR
0.00042228
Loading maneuver chart data...
Computing Atmospheric mass density...
Loading historical data...
Loading historical data...
Loading historical data...
Loading historical data...
Loading historical data...
Loading historical data...
Loading historical data...

Documentation

Showing up to 5 results
|